Regional Weather Roundup
Issued by NWS Goodland, KS

Home | Current Version | Previous Version | Graphics & Text | Print | Product List | Glossary On
Versions: 1 2 3 4 5 6 7 8 9 10 11 12 13 14 15 16 17 18 19 20 21 22 23 24 25 26 27 28 29 30 31 32 33 34 35 36 37 38 39 40 41 42 43 44 45 46 47 48 49 50
000
ASUS43 KGLD 020108
RWRGLD

GOODLAND FORECAST AREA HOURLY WEATHER ROUNDUP
NATIONAL WEATHER SERVICE GOODLAND KS
700 PM MDT WED JUL 01 2015

...OFFICIAL OBSERVATIONS...

CITY           SKY/WX    TMP DP  RH WIND       PRES   REMARKS
GOODLAND KS    PTSUNNY   89  54  30 NE9       29.98R
HILL CITY KS   SUNNY     92  52  25 NE10      29.89R
IMPERIAL NEB   MOSUNNY   86  58  38 E7        29.96R
MCCOOK NEB     MOSUNNY   89  66  46 E8        29.91R
AKRON CO       TSTM      72  58  61 W23G32    30.10R
BURLINGTON CO  PTSUNNY   88  49  25 E9        30.02R
LIMON CO       TSTM      62  60  93 N15G22    30.24R
$$

...UNOFFICIAL OBSERVATIONS...

CITY           SKY/WX    TMP DP  RH WIND       PRES   REMARKS
COLBY KS       SUNNY     90  59  35 E7        29.96R
GOVE KS          N/A     91  32  12 MISG        N/A
NORTON KS      SUNNY     88  55  33 NE6       29.90R
SHARON SPRINGS   N/A     91  50  24 CALM        N/A
KIT CARSON CO    N/A     88  53  29 MISG        N/A
$$



USA.gov is the U.S. government's official web portal to all federal, state and local government web resources and services.